Hourly Weather Chahari-Zbaraz'ki

Today, 15 June, Tuesday

Time Temperature Precipitation Wind Pressure Humidity
00:00 +13°C° 0 mm 4 mps 729 mmHg 94%
01:00 +12°C° 0 mm 4 mps 729 mmHg 95%
02:00 +12°C° 0 mm 3 mps 729 mmHg 96%
03:00 +12°C° 0 mm 3 mps 729 mmHg 96%
04:00 +11°C° 0 mm 3 mps 729 mmHg 96%
05:00 +11°C° 0 mm 3 mps 729 mmHg 96%
06:00 +13°C° 0 mm 3 mps 729 mmHg 91%
07:00 +15°C° 0 mm 4 mps 729 mmHg 87%
08:00 +17°C° 0 mm 4 mps 730 mmHg 83%
09:00 +18°C° 0.1 mm 4 mps 730 mmHg 80%
10:00 +20°C° 0.1 mm 4 mps 729 mmHg 78%
11:00 +21°C° 0.1 mm 4 mps 729 mmHg 75%
12:00 +21°C° 0.4 mm 4 mps 729 mmHg 77%
13:00 +20°C° 0.4 mm 4 mps 729 mmHg 79%
14:00 +20°C° 0 mm 4 mps 729 mmHg 78%
15:00 +20°C° 0.1 mm 4 mps 729 mmHg 77%
16:00 +21°C° 0.1 mm 4 mps 729 mmHg 77%
17:00 +21°C° 0.1 mm 4 mps 728 mmHg 76%
18:00 +20°C° 0 mm 4 mps 728 mmHg 81%
19:00 +19°C° 0 mm 4 mps 728 mmHg 85%
20:00 +17°C° 0 mm 3 mps 728 mmHg 89%
21:00 +16°C° 0 mm 3 mps 728 mmHg 91%
22:00 +16°C° 0 mm 3 mps 728 mmHg 92%
23:00 +14°C° 0 mm 3 mps 728 mmHg 93%

Tomorrow, 16 June, Wednesday

Time Temperature Precipitation Wind Pressure Humidity
00:00 +13°C° 0 mm 3 mps 728 mmHg 93%
01:00 +13°C° 0 mm 3 mps 728 mmHg 93%
02:00 +12°C° 0 mm 3 mps 728 mmHg 92%
03:00 +12°C° 0 mm 3 mps 728 mmHg 92%
04:00 +12°C° 0 mm 3 mps 728 mmHg 92%
05:00 +12°C° 0 mm 3 mps 728 mmHg 92%
06:00 +14°C° 0 mm 3 mps 728 mmHg 87%
07:00 +16°C° 0 mm 3 mps 729 mmHg 83%
08:00 +18°C° 0 mm 4 mps 729 mmHg 78%
09:00 +19°C° 0 mm 4 mps 729 mmHg 75%
10:00 +20°C° 0 mm 4 mps 730 mmHg 71%
11:00 +22°C° 0 mm 4 mps 730 mmHg 68%
12:00 +22°C° 0.2 mm 4 mps 730 mmHg 67%
13:00 +22°C° 0.2 mm 5 mps 730 mmHg 66%
14:00 +23°C° 0.2 mm 5 mps 729 mmHg 66%
15:00 +22°C° 0.3 mm 5 mps 729 mmHg 69%
16:00 +22°C° 0.3 mm 4 mps 729 mmHg 73%
17:00 +22°C° 0.3 mm 4 mps 729 mmHg 77%
18:00 +20°C° 0.2 mm 4 mps 729 mmHg 81%
19:00 +19°C° 0.2 mm 3 mps 730 mmHg 85%
20:00 +18°C° 0.2 mm 3 mps 730 mmHg 89%
21:00 +17°C° 0 mm 3 mps 730 mmHg 91%
22:00 +16°C° 0 mm 3 mps 730 mmHg 92%
23:00 +14°C° 0 mm 3 mps 730 mmHg 93%

Day after tomorrow, 17 June, Thursday

Time Temperature Precipitation Wind Pressure Humidity
00:00 +14°C° 0 mm 3 mps 730 mmHg 93%
01:00 +13°C° 0 mm 3 mps 730 mmHg 93%
02:00 +13°C° 0 mm 3 mps 731 mmHg 94%
03:00 +13°C° 0 mm 3 mps 731 mmHg 93%
04:00 +12°C° 0 mm 3 mps 731 mmHg 92%
05:00 +12°C° 0 mm 3 mps 731 mmHg 91%
06:00 +14°C° 0 mm 3 mps 731 mmHg 87%
07:00 +16°C° 0 mm 3 mps 732 mmHg 82%
08:00 +18°C° 0 mm 3 mps 732 mmHg 78%
09:00 +20°C° 0 mm 4 mps 732 mmHg 75%
10:00 +21°C° 0 mm 4 mps 732 mmHg 72%
11:00 +22°C° 0 mm 4 mps 732 mmHg 68%
12:00 +23°C° 0.1 mm 4 mps 732 mmHg 69%
13:00 +23°C° 0.1 mm 4 mps 732 mmHg 69%
14:00 +23°C° 0.1 mm 4 mps 732 mmHg 69%
15:00 +23°C° 0.3 mm 4 mps 732 mmHg 72%
16:00 +23°C° 0.3 mm 4 mps 732 mmHg 74%
17:00 +23°C° 0.3 mm 4 mps 732 mmHg 77%
18:00 +22°C° 0.2 mm 3 mps 732 mmHg 80%
19:00 +21°C° 0.2 mm 3 mps 732 mmHg 84%
20:00 +20°C° 0.2 mm 2 mps 732 mmHg 88%
21:00 +19°C° 0 mm 2 mps 733 mmHg 89%
22:00 +18°C° 0 mm 2 mps 733 mmHg 91%
23:00 +17°C° 0 mm 2 mps 733 mmHg 92%

18 June, Friday

Time Temperature Precipitation Wind Pressure Humidity
00:00 +17°C° 0 mm 2 mps 733 mmHg 93%
01:00 +17°C° 0 mm 2 mps 733 mmHg 94%
02:00 +16°C° 0 mm 3 mps 732 mmHg 95%
03:00 +16°C° 0 mm 3 mps 733 mmHg 96%
04:00 +16°C° 0 mm 2 mps 733 mmHg 96%
05:00 +16°C° 0 mm 2 mps 733 mmHg 97%
06:00 +17°C° 0 mm 3 mps 733 mmHg 93%
07:00 +19°C° 0 mm 3 mps 733 mmHg 88%
08:00 +20°C° 0 mm 4 mps 734 mmHg 84%
09:00 +21°C° 0 mm 4 mps 734 mmHg 78%
10:00 +22°C° 0 mm 4 mps 733 mmHg 72%
11:00 +23°C° 0 mm 4 mps 733 mmHg 67%
12:00 +25°C° 0 mm 4 mps 733 mmHg 65%
13:00 +26°C° 0 mm 4 mps 733 mmHg 62%
14:00 +26°C° 0 mm 4 mps 733 mmHg 60%
15:00 +26°C° 0 mm 4 mps 733 mmHg 63%
16:00 +26°C° 0 mm 4 mps 733 mmHg 67%
17:00 +26°C° 0 mm 4 mps 733 mmHg 70%
18:00 +23°C° 0 mm 4 mps 733 mmHg 76%
19:00 +22°C° 0 mm 3 mps 733 mmHg 83%
20:00 +20°C° 0 mm 3 mps 733 mmHg 89%
21:00 +19°C° 0 mm 3 mps 733 mmHg 92%
22:00 +19°C° 0 mm 3 mps 733 mmHg 94%
23:00 +18°C° 0 mm 3 mps 733 mmHg 96%

19 June, Saturday

Time Temperature Precipitation Wind Pressure Humidity
00:00 +17°C° 0 mm 3 mps 733 mmHg 97%
01:00 +17°C° 0 mm 2 mps 733 mmHg 97%
02:00 +17°C° 0 mm 2 mps 733 mmHg 98%
03:00 +17°C° 0 mm 2 mps 733 mmHg 98%
04:00 +16°C° 0 mm 2 mps 733 mmHg 98%
05:00 +16°C° 0 mm 2 mps 733 mmHg 98%
06:00 +18°C° 0 mm 3 mps 733 mmHg 94%
07:00 +19°C° 0 mm 4 mps 733 mmHg 89%
08:00 +21°C° 0 mm 4 mps 734 mmHg 84%
09:00 +22°C° 0 mm 4 mps 733 mmHg 79%
10:00 +23°C° 0 mm 4 mps 733 mmHg 74%
11:00 +25°C° 0 mm 4 mps 733 mmHg 70%
12:00 +25°C° 0.3 mm 4 mps 733 mmHg 70%
13:00 +25°C° 0.3 mm 4 mps 733 mmHg 71%
14:00 +25°C° 0.3 mm 4 mps 733 mmHg 72%
15:00 +25°C° 0.2 mm 4 mps 732 mmHg 71%
16:00 +25°C° 0.2 mm 4 mps 732 mmHg 71%
17:00 +25°C° 0.2 mm 4 mps 732 mmHg 71%
18:00 +22°C° 0.2 mm 4 mps 732 mmHg 78%
19:00 +21°C° 0.2 mm 3 mps 732 mmHg 84%
20:00 +19°C° 0.2 mm 3 mps 732 mmHg 91%
21:00 +18°C° 0 mm 3 mps 732 mmHg 92%
22:00 +18°C° 0 mm 3 mps 732 mmHg 94%
23:00 +17°C° 0 mm 2 mps 732 mmHg 95%

20 June, Sunday

Time Temperature Precipitation Wind Pressure Humidity
00:00 +17°C° 0 mm 2 mps 732 mmHg 96%
01:00 +16°C° 0 mm 2 mps 732 mmHg 96%
02:00 +16°C° 0 mm 2 mps 731 mmHg 96%
03:00 +16°C° 0 mm 2 mps 731 mmHg 96%
04:00 +16°C° 0 mm 2 mps 731 mmHg 96%
05:00 +16°C° 0 mm 2 mps 731 mmHg 97%
06:00 +17°C° 0 mm 2 mps 731 mmHg 93%
07:00 +19°C° 0 mm 3 mps 731 mmHg 88%
08:00 +20°C° 0 mm 3 mps 731 mmHg 84%
09:00 +21°C° 0.3 mm 4 mps 731 mmHg 81%
10:00 +22°C° 0.3 mm 4 mps 731 mmHg 77%
11:00 +23°C° 0.3 mm 4 mps 731 mmHg 74%
12:00 +25°C° 0.8 mm 4 mps 731 mmHg 73%
13:00 +25°C° 0.8 mm 4 mps 730 mmHg 73%
14:00 +25°C° 0.8 mm 4 mps 730 mmHg 72%
15:00 +25°C° 0.6 mm 4 mps 730 mmHg 75%
16:00 +23°C° 0.6 mm 4 mps 730 mmHg 78%
17:00 +23°C° 0.6 mm 4 mps 730 mmHg 82%
18:00 +22°C° 0.3 mm 4 mps 730 mmHg 85%
19:00 +21°C° 0.3 mm 3 mps 730 mmHg 88%
20:00 +20°C° 0.3 mm 3 mps 730 mmHg 91%
21:00 +19°C° 0.1 mm 3 mps 730 mmHg 92%
22:00 +18°C° 0.1 mm 3 mps 730 mmHg 94%
23:00 +18°C° 0.1 mm 3 mps 730 mmHg 96%
Show more

We Need Your Consent

Meteoprog and our Service Providers may store and access personal data such as cookies, device identifiers or other similar technologies on your device and process such data to personalise content and ads, as well as provide social media features and to analyse the traffic.

  • Store and/or access information on your device

    Cookies, device identifiers or other information can be stored or accessed on your device for the purposes indicated above.

  • Personalised ads and content, ad and content measurement, audience insights, and products development

    Ads and content can be personalised based on a profile. More data can be added to better personalise ads and content. Ad and content performance can be measured. Insights about the audience who saw the ads and content can be derived. Such data can be used to develop or improve user’s experience, systems and software.

By clicking ‘I Agree’ you will allow the use of indicated cookies, device identifiers, web beacons or other similar technologies. Your settings can be changed in the browser on your device.

For certain purposes, legitimate interests may be relied on, rather than consent. You can read more about this in our Privacy and Cookie Policy.